Shi Jian 9A

operational
NORAD ID: 38860 Int'l Des: 2012-056 Owner: ZZWYZ Country: CN
LEOCIRCULARRETROGRADESSO

About Shi Jian 9A

Description loading...

Live Position

Loading 3D Globe...

Upcoming Passes

Altitude History

Altitude vs Time

uPlot chart will show altitude changes over time

Two-Line Element Set

1 38860U 12056A 25338.66227613 .00001767 00000-0 21249-3 0 9995
2 38860 97.6471 313.0225 0025823 174.3709 185.7802 14.84922147670712
Epoch: Dec 4, 2025 • Age: 11 hours

Current Status

Altitude 640.3 km
Velocity 7.53 km/s
Sub-Earth Point -24.62°S, 163.75°W
Launch Date Oct 14, 2012
Age 13.1 years
Type other

Technical Details

Classification Payload
Mass 800.00 kg
Dry Mass 800.00 kg
Total Mass 800.00 kg
Length 2.90 m
Diameter 2.50 m
Span 8.60 m
Shape Box + 2 Pan
Manufacturer SAST
Bus Type CAST-2000
Phase Status In Orbit
Owner/State ZZWYZ/CN

Large Constellations

Loading constellations...